TimeCDT,TemperatureF,Dew PointF,Humidity,Sea Level PressureIn,VisibilityMPH,Wind Direction,Wind SpeedMPH,Gust SpeedMPH,PrecipitationIn,Events,Conditions,WindDirDegrees,DateUTC
12:04 AM,48.2,48.2,100,30.00,1.0,Calm,Calm,-,N/A,,Overcast,0,2013-04-28 05:04:00
12:15 AM,48.2,48.2,100,30.00,2.5,WNW,3.5,-,N/A,,Overcast,290,2013-04-28 05:15:00
12:26 AM,48.2,48.2,100,30.00,4.0,WNW,3.5,-,N/A,,Overcast,300,2013-04-28 05:26:00
12:55 AM,48.9,48.0,97,30.01,4.0,WNW,4.6,-,N/A,,Overcast,300,2013-04-28 05:55:00
1:50 AM,48.2,46.4,93,29.97,2.5,Calm,Calm,-,N/A,,Overcast,0,2013-04-28 06:50:00
1:55 AM,46.9,46.9,100,29.99,0.8,Calm,Calm,-,N/A,,Overcast,0,2013-04-28 06:55:00
1:58 AM,46.4,46.4,100,29.97,0.5,Calm,Calm,-,N/A,Fog,Fog,0,2013-04-28 06:58:00
2:20 AM,44.6,44.6,100,29.96,0.2,Calm,Calm,-,N/A,Fog,Fog,0,2013-04-28 07:20:00
2:55 AM,43.0,43.0,100,29.98,0.2,WNW,3.5,-,N/A,Fog,Fog,290,2013-04-28 07:55:00
3:15 AM,44.6,44.6,100,29.96,0.8,WNW,4.6,-,N/A,,Overcast,290,2013-04-28 08:15:00
3:24 AM,44.6,44.6,100,29.96,1.2,WNW,3.5,-,N/A,,Overcast,290,2013-04-28 08:24:00
3:35 AM,44.6,44.6,100,29.96,0.5,WNW,5.8,-,N/A,Fog,Fog,300,2013-04-28 08:35:00
3:42 AM,44.6,44.6,100,29.96,0.2,WNW,4.6,-,N/A,Fog,Fog,300,2013-04-28 08:42:00
3:55 AM,45.0,45.0,100,29.99,0.2,WNW,4.6,-,N/A,Fog,Fog,300,2013-04-28 08:55:00
4:55 AM,44.1,44.1,100,29.98,0.2,Calm,Calm,-,N/A,Fog,Fog,0,2013-04-28 09:55:00
5:41 AM,44.6,44.6,100,29.96,1.0,West,3.5,-,N/A,,Overcast,280,2013-04-28 10:41:00
5:55 AM,44.1,44.1,100,29.99,2.0,Calm,Calm,-,N/A,,Overcast,0,2013-04-28 10:55:00
6:10 AM,44.6,44.6,100,29.96,3.0,Calm,Calm,-,N/A,,Overcast,0,2013-04-28 11:10:00
6:35 AM,44.6,44.6,100,29.97,2.5,WNW,5.8,-,N/A,,Overcast,300,2013-04-28 11:35:00
6:38 AM,44.6,44.6,100,29.97,0.8,WNW,6.9,-,N/A,,Overcast,290,2013-04-28 11:38:00
6:45 AM,44.6,44.6,100,29.97,0.2,WNW,6.9,-,N/A,Fog,Fog,290,2013-04-28 11:45:00
6:55 AM,45.0,45.0,100,29.99,0.2,WNW,5.8,-,N/A,Fog,Fog,300,2013-04-28 11:55:00
7:13 AM,46.4,46.4,100,29.97,1.0,WNW,5.8,-,N/A,,Overcast,300,2013-04-28 12:13:00
7:27 AM,46.4,46.4,100,29.98,2.5,WNW,4.6,-,N/A,,Overcast,300,2013-04-28 12:27:00
7:39 AM,46.4,46.4,100,29.98,3.0,WNW,4.6,-,N/A,,Overcast,290,2013-04-28 12:39:00
7:55 AM,46.4,46.4,100,29.98,5.0,WNW,5.8,-,N/A,,Overcast,300,2013-04-28 12:55:00
8:55 AM,48.9,48.0,97,30.00,9.0,West,3.5,-,N/A,,Overcast,280,2013-04-28 13:55:00
9:55 AM,53.1,50.0,89,29.99,10.0,Calm,Calm,-,N/A,,Overcast,0,2013-04-28 14:55:00
10:17 AM,55.4,50.0,82,29.97,10.0,Calm,Calm,-,N/A,,Scattered Clouds,0,2013-04-28 15:17:00
10:45 AM,55.4,50.0,82,29.97,10.0,West,4.6,-,N/A,,Mostly Cloudy,280,2013-04-28 15:45:00
10:55 AM,57.0,50.0,77,29.99,10.0,Calm,Calm,-,N/A,,Scattered Clouds,0,2013-04-28 15:55:00
11:07 AM,57.2,51.8,82,29.97,10.0,West,3.5,-,N/A,,Mostly Cloudy,270,2013-04-28 16:07:00
11:55 AM,59.0,48.9,69,29.97,10.0,Calm,Calm,-,N/A,,Partly Cloudy,0,2013-04-28 16:55:00
12:55 PM,62.1,51.1,67,29.96,10.0,West,5.8,-,N/A,,Mostly Cloudy,270,2013-04-28 17:55:00
1:36 PM,64.4,51.8,64,29.93,10.0,South,8.1,-,N/A,,Partly Cloudy,180,2013-04-28 18:36:00
1:55 PM,64.0,52.0,65,29.93,10.0,South,6.9,-,N/A,,Clear,180,2013-04-28 18:55:00
2:55 PM,66.9,52.0,59,29.92,10.0,South,6.9,-,N/A,,Partly Cloudy,190,2013-04-28 19:55:00
3:55 PM,66.9,53.1,61,29.89,10.0,South,6.9,16.1,N/A,,Partly Cloudy,180,2013-04-28 20:55:00
4:55 PM,68.0,52.0,56,29.87,10.0,SSW,8.1,-,N/A,,Clear,200,2013-04-28 21:55:00
5:55 PM,68.0,52.0,56,29.87,10.0,South,10.4,-,N/A,,Clear,190,2013-04-28 22:55:00
6:55 PM,64.0,53.1,67,29.86,10.0,South,10.4,-,N/A,,Clear,180,2013-04-28 23:55:00
7:55 PM,57.9,52.0,81,29.86,10.0,South,8.1,-,N/A,,Clear,180,2013-04-29 00:55:00
8:55 PM,54.0,50.0,86,29.87,10.0,South,6.9,-,N/A,,Clear,180,2013-04-29 01:55:00
9:55 PM,53.1,50.0,89,29.89,10.0,South,8.1,-,N/A,,Clear,170,2013-04-29 02:55:00
10:55 PM,52.0,48.9,89,29.88,10.0,SSE,5.8,-,N/A,,Clear,160,2013-04-29 03:55:00
11:55 PM,52.0,50.0,93,29.87,9.0,SSE,9.2,-,N/A,,Clear,160,2013-04-29 04:55:00